sat.trackr.live / text

‹ back to catalog

YAOGAN-40 02B

NORAD 63919 · 2025-096B

PAYLOAD ACTIVE UNKNOWN

§ Identity

Operator
Country
PRC
Launch date
2025-05-11
Launch site
TAISC
Launch vehicle
Mass (kg)
RCS (m²)

External: N2YO · Heavens-Above · Gunter

§ Orbital elements

Epoch: 2026-05-25T04:28:24.572064Z

Period
101.95 min
Inclination
85.9962°
Eccentricity
0.0002038
Mean motion
14.12443797 rev/d
Perigee alt
849.5 km
Apogee alt
852.5 km
Semi-major
7,229.2 km
B*
5.5173e-5
RAAN
198.2430°
Arg perigee
101.0833°
Mean anomaly
259.0579°
Rev number
5,332

§ Raw data

YAOGAN-40 02B1 63919U 25096B   26145.18639551  .00000121  00000+0  55173-4 0  99942 63919  85.9962 198.2430 0002038 101.0833 259.0579 14.12443797 53327

JSON: /api/v1/satellites/63919 · /tle

For live sub-satellite position, see the globe view (requires WebGL).

§ Visibility from observer

Set your observer location to see the next 7 days of passes ≥ 10°. The values pass through the URL so the page stays shareable.

No JS? Fill the form by hand. The geolocation button needs JavaScript.